Regional Weather Roundup
Issued by NWS

Home | Current Version | Previous Version | Text Only | Print | Product List | Glossary Off
Versions: 1 2 3 4 5 6 7 8 9 10 11 12 13 14 15 16 17 18 19 20 21 22 23 24 25 26 27 28 29 30 31 32 33 34 35 36 37 38 39 40 41 42 43 44 45 46 47 48 49

000
ASUS45 KCYS 280710
RWRWY

WYOMING REGIONAL WEATHER ROUNDUP
NATIONAL WEATHER SERVICE CHEYENNE WY
1200 AM MST FRI NOV 28 2014

NOTE:  "FAIR" INDICATES FEW OR NO CLOUDS BELOW 12,000 FEET
WITH NO SIGNIFICANT WEATHER AND/OR OBSTRUCTIONS TO VISIBILITY.

WYZ001-280800-
YELLOWSTONE NATIONAL PARK

CITY           SKY/WX    TMP DP  RH WIND       PRES   REMARKS
LK YELLOWSTONE   N/A     32  29  88 CALM      30.08F
W YELLOWSTONE  NOT AVBL

$$
WYZ002>013-054>058-071-098>099-280800-
NORTHERN WYOMING

CITY           SKY/WX    TMP DP  RH WIND       PRES   REMARKS
JACKSON        CLOUDY    39  28  65 SW7       30.08F WCI  34
CODY           PTCLDY    54  23  30 NW6G18    29.84S
GREYBULL       MOCLDY    32  27  81 SE6       29.88S WCI  26
WORLAND        PTCLDY    23  21  92 SE6       29.88F WCI  16
SHERIDAN       MOCLDY    58  24  27 SW21G40   29.75F
BUFFALO        MOCLDY    51  24  34 W10       29.81F
GILLETTE       CLOUDY    45  30  55 SW22G30   29.79F
HULETT           N/A    N/A N/A N/A MISG        N/A
NEWCASTLE      FAIR      32  27  80 CALM      29.89S

$$
WYZ014>020-022>026-101>103-280800-
CENTRAL WYOMING

CITY           SKY/WX    TMP DP  RH WIND       PRES   REMARKS
BIG PINEY      PTCLDY   N/A N/A N/A E6        30.14F
PINEDALE       MOSUNNY   18  16  93 W5        30.16F WCI  11
DUBOIS         FAIR      36  23  60 NW17      30.05R WCI  25
LANDER         MOCLDY    43  22  43 NW9       29.95F
RIVERTON       MOCLDY    38  25  59 S5        29.97F WCI  34
CASPER         PTCLDY    41  24  51 SW14      29.99S
DOUGLAS        MOCLDY    51  23  33 W16G22    29.93F

$$
WYZ021-027>030-104>119-280800-
SOUTHERN WYOMING

CITY           SKY/WX    TMP DP  RH WIND       PRES   REMARKS
EVANSTON       PTCLDY    38  19  46 SW13      30.18F WCI  30
FORT BRIDGER   FAIR      42  20  42 W15       30.17F
ROCK SPRINGS   PTCLDY    34  19  54 W9        30.14F WCI  27
DIXON          FAIR      46  18  33 S15G25    30.20F
RAWLINS        PTCLDY    43  20  39 SW20G31   30.11F
SARATOGA       FAIR      41  23  48 S14       30.16F
LARAMIE        PTCLDY    41  19  41 SW21      30.12F
CHEYENNE       PTCLDY    51  18  27 W26G36    30.01F
TORRINGTON     CLEAR     51  23  33 VRB6      29.92F
PINE BLUFFS    FAIR      43  23  45 SW7       30.02S

$$


USA.gov is the U.S. government's official web portal to all federal, state and local government web resources and services.